www.pogodaiklimat.ru

Погода и климат >> Архив погоды >> Мексика >> Кульякан


ПОГОДА в Кульякане

  • Прогноз погоды в Кульякане
  • Монитор погоды в Кульякане

АРХИВ ПОГОДЫ в Кульякане

Время (UTC), дата Ветер
(напр.,м/с)
 
Видим.   Явления Облачность Т
(С)
Тd
(С)
f
(%)
Тe
(С)
Тes
(С)
Комфортность P
(гПа)
Po
(гПа)
Тmin
(С)
Tmax
(С)
R
(мм)
R24
(мм)
S
(см)
21 8.02 Ю 1 16 км 3/0 2000 м
[As trans]
+28.9 +10.6 32 +29 +39 жарко 1015.0 1010.4
00 9.02 Ю 1 16 км 3/0 2000 м
[As trans]
+29.0 +8.9 28 +29 +29 жарко 1013.7 1009.2 +12.8 +30.3
03 9.02 Ю 1 16 км 3/0 2000 м
[As trans]
+19.3 +16.4 83 +22 +22 комфорт 1015.4 1010.9
06 9.02 Ю 1 16 км 1/0 2000 м
[As trans]
+16.1 +16.1 100 +17 +17 1016.4 1011.9 +12.8 +30.3
09 9.02 Ю 1 16 км 1/0 2000 м
[As trans]
+14.2 +14.2 100 +14 +14 1017.0 1012.5
12 9.02 ЮЗ 1 16 км 3/0 2000 м
[As trans]
+13.4 +13.4 100 +13 +13 1018.3 1013.7 +13.3 +30.3
15 9.02 Ю 1 16 км 5/0 2000 м
[As trans]
+14.8 +14.8 100 +15 +17 1018.1 1013.5
18 9.02 Ю 1 16 км ясно +28.4 +19.6 59 +34 +49 очень
душно
1017.6 1013.0 +13.0 +29.0
00 10.02 ЮЗ 2 16 км 9/0 1500 м
[Ac und]
+26.6 +16.7 55 +30 +31 душно 1016.2 1011.7 +13.0 +30.0
06 10.02 штиль 0 16 км ясно +16.5 +15.1 91 +16 +16 1016.6 1012.1 +13.0 +30.0
09 10.02 СВ 1 16 км ясно +15.8 +15.2 96 +16 +16 1016.2 1011.7
12 10.02 В 1 16 км ясно +14.6 +14.3 98 +15 +15 1015.4 1010.8 +14.2 +30.0
15 10.02 н/о +14.7 1017.1 1012.5
18 10.02 В 1 16 км ясно +27.4 +12.3 39 +29 +43 жарко 1017.4 1012.8 +13.6 +27.6
21 10.02 В 1 16 км ясно +29.0 +17.1 49 1018.6
00 11.02 В 1 16 км ясно +27.8 +12.5 39 +29 +30 жарко 1017.9 1013.4 +13.6 +30.0
03 11.02 штиль 0 16 км ясно +22.7 +16.4 68 +27 +27 душно 1017.0 1012.6
06 11.02 штиль 0 16 км ясно +19.8 +15.1 74 +22 +22 комфорт 1016.5 1012.0 +30.0
15 11.02 В 1 16 км ясно +18.4 +15.1 81 +20 +23 1015.0 1010.4
18 11.02 Ю 1 16 км 8/0 1500 м
[Ac und]
+24.8 +21 +27 комфорт 1011.0 1013.7 +13.8 +25.6
21 11.02 Ю 1 16 км 8/0 1500 м
[Ac und]
+29.6 +4.4 20 +28 +33 жарко 1016.5 1012.0
00 12.02 З 2 16 км 10/0 1500 м
[Ac und]
+24.0 +13.5 52 +26 +26 жарко 1016.8 1012.3 +13.8 +30.4
03 12.02 ЮВ 1 16 км 10/0 1500 м
[Ac und]
+21.0 +14.0 64 +25 +25 комфорт 1017.2 1012.7
06 12.02 ЮВ 1 16 км 10/0
[Ac und]
+18.6 +16.1 85 +21 +21 комфорт 1016.5 1012.0 +30.4
09 12.02 В 1 16 км 10/0
[Ac und]
+16.0 +14.0 88 +17 +17 1014.7 1010.2
12 12.02 В 1 16 км 5/0 1500 м
[Ac und]
+14.2 +13.2 94 +14 +14 1015.4 1010.8 +13.4 +30.4
15 12.02 В 1 16 км ясно +15.2 +14.6 96 +16 +18 1015.2 1010.6
18 12.02 Ю 1 16 км ясно +24.8 +14.8 54 +28 +42 жарко 1015.9 1011.3 +13.4 +25.6
21 12.02 Ю 1 16 км 5/0 1500 м
[Ac und]
+28.6 +12.8 38 +30 +38 жарко 1016.9 1012.4
00 13.02 З 2 16 км ясно +28.0 +13.6 41 +30 +31 жарко 1017.8 1013.3 +13.4 +30.0
06 13.02 ЮВ 1 16 км ясно +18.6 +18.0 96 +21 +21 комфорт 1015.7 1011.2 +30.0
09 13.02 штиль 0 16 км ясно +16.6 +15.3 92 +16 +16 1015.1 1010.6
12 13.02 В 1 16 км ясно +15.4 +14.4 94 +16 +16 1014.5 1010.0 +14.4
21 13.02 В 1 16 км ясно +29.4 +14.2 39 +31 +44 жарко 1016.7 1012.2
00 14.02 В 1 16 км ясно +28.4 +15.6 46 +31 +32 душно 1016.3 1011.8 +14.4 +31.0
03 14.02 В 1 16 км ясно +22.8 +18.3 76 +28 +28 душно 1015.4 1011.0
06 14.02 В 1 16 км ясно +18.8 +17.0 89 +21 +21 комфорт 1014.6 1010.2 +14.4 +31.0
12 14.02 В 1 16 км ясно +15.0 +14.3 96 +15 +15 1013.5 1009.0
15 14.02 В 1 16 км ясно +17.4 +14.2 81 +18 +21 1015.4 1010.8
18 14.02 В 1 16 км ясно +26.2 +13.6 46 +28 +43 жарко 1016.6 1012.0 +14.0 +26.2
21 14.02 Ю 1 16 км ясно +29.2 +12.3 35 +30 +43 жарко 1013.7 1011.2
00 15.02 Ю 1 16 км ясно +28.4 +12.9 38 +30 +31 жарко 1014.1 1009.6 +14.0 +29.6
03 15.02 штиль 0 16 км ясно +20.8 +11.1 54 +22 +22 комфорт 1017.2 1012.8
06 15.02 штиль 0 16 км ясно +17.0 +13.4 79 +17 +17 1017.9 1013.4 +14.0 +29.6
09 15.02 штиль 0 16 км ясно +14.8 +13.5 92 +14 +14 1017.8 1013.3
12 15.02 штиль 0 16 км ясно +14.0 +13.3 96 +14 +14 1016.5 1011.9 +13.5 +29.6
15 15.02 З 1 16 км ясно +16.2 +13.4 83 +17 +20 1017.1 1012.5
18 15.02 З 1 16 км 1/0 2000 м
[As trans]
+28.0 +6.4 25 +27 +41 жарко 1017.6 1013.0 +13.5 +28.1

 

Местоположение метеостанции Кульякан (Мексика): широта 24.80 долгота -107.40 высота над уровнем моря 39 м.

В архиве по умолчанию представлена погода в Кульякане за последнюю неделю. Архивные данные за месяц целиком и за предыдущие месяцы, начиная с января 2011 года, Вы можете получить, выбрав интересующий диапазон дат из раскрывающегося списка и нажав кнопку "Ввод!".


*Определитесь, кто Вы:
робот инопланетянин человек

Внимание! Время в таблицах - всемирное. Для получения местного времени необходимо прибавить поправку, которая равна -7 ч.

Смотрите также архив погоды в соседних городах и на ближайших метеорологических станциях:

Погода в Тепеуанесе (Мексика) (180 км)
Погода в Мазатлане (Мексика) (205 км)
Погода в Чойсе (Мексика) (229 км)
Погода в Дуранго (Мексика) (296 км)
Погода в Паррале (Мексика) (298 км)
Погода в Ла-Пасе (Мексика) (302 км)
Погода с Сьюдад-Обрегоне (Мексика) (377 км)
Погода в Сомбререте (Мексика) (407 км)
Погода в Торреоне (Мексика) (411 км)
Погода в Лорето (Мексика) (415 км)

Пояснения к столбцам:

Ветер - указаны скорость ветра в м/с - средняя за 10 мин, порывы в срок и между сроками (в фигурных скобках) и направление, откуда дует ветер: С - северный, СВ - северо-восточный, В - восточный, ЮВ - юго-восточный, Ю - южный, ЮЗ - юго-западный, З - западный, СЗ - северо-западный.
Видимость - горизонтальная дальность видимости в метрах или километрах. При видимости от 1 до 10 км при отсутствии осадков обычно наблюдается дымка, при ухудшении видимости до 1 км и менее - туман. В сухую погоду видимость может ухудшаться дымом, пылью или мглою.
Явления - указаны атмосферные явления, наблюдавшиеся в срок или в последний час перед сроком; фигурными скобками обозначены явления, наблюдавшиеся между сроками (за 1-3 часа до срока); квадратными скобками обозначены град или гололедные отложения с указанием их диаметра в мм.
Облачность - указаны через наклонную черту общая и нижняя облачность в баллах и высота нижней границы облаков в метрах; квадратными скобками обозначены формы облаков: Ci - перистые, Cs - перисто-слоистые, Cc - перисто-кучевые, Ac - высококучевые, As - высокослоистые, Sc - слоисто-кучевые, Ns - слоисто-дождевые, Cu - кучевые, Cb - кучево-дождевые. Подробнее классификацию облаков см. в Атласе облаков (PDF).
T - Температура воздуха - температура, измеренная на высоте 2 м над землей.
Td - Температура точки росы - температура, при понижении до которой содержащийся в воздухе водяной пар достигнет насыщения.
f - Относительная влажность воздуха - влажноcть воздуха, измеренная на высоте 2 м над землей.
Te - Эффективная температура - температура, которую ощущает одетый по сезону человек в тени. Характеристика душности погоды. При расчете учитывается влияние влажности воздуха и скорости ветра на теплоощущения человека.
Tes - Эффективная температура на солнце - температура, которую ощущает человек, с поправкой на солнечный нагрев. Характеристика знойности погоды. Зависит от высоты солнца над горизонтом, облачности и скорости ветра. Ночью, в пасмурную погоду, а также при ветре 12 м/с и более поправка равна нулю.
P - Атмосферное давление - приведенное к уровню моря атмосферное давление.
Po - Атмосферное давление - измеренное на уровне метеостанции атмосферное давление.
Tmin - Минимальная температура - минимум температуры воздуха на высоте 2 м над землей.
Tmax - Максимальная температура - максимум температуры воздуха на высоте 2 м над землей.
R - Количество осадков - Количество выпавших осадков за период времени, мм. При наведении курсора мыши на число - период времени, за который выпало указанное количество осадков.
R24 - Количество осадков - Количество выпавших осадков за 24 часа, мм.
S - Снежный покров - Высота снежного покрова, см. При наведении курсора мыши на число - состояние снежного покрова и степень покрытия местности в баллах.